This is the latest recevied weather packets stored in our database for station/object EB2EMZ-3. If no packets are shown the sender has not sent any weather packets the latest 10 day(s).
| Time | Temp. | Humidity | Pressure | Rain* | Wind** | Luminosity | Snow |
|---|---|---|---|---|---|---|---|
| 1777888180 | 20° C | 74% | 1011.8 hPa | 0 mm | - | - | - |
| 1777887880 | 20° C | 75% | 1011.6 hPa | 0 mm | - | - | - |
| 1777887580 | 19.44° C | 75% | 1011.6 hPa | 0 mm | - | - | - |
| 1777887280 | 20° C | 74% | 1011.6 hPa | 0 mm | - | - | - |
| 1777886980 | 20° C | 73% | 1011.6 hPa | 0 mm | - | - | - |
| 1777886680 | 20° C | 73% | 1011.6 hPa | 0 mm | - | - | - |
| 1777886380 | 20° C | 72% | 1011.6 hPa | 0 mm | - | - | - |
| 1777886080 | 20.56° C | 72% | 1011.6 hPa | 0 mm | - | - | - |
| 1777885780 | 20.56° C | 71% | 1011.8 hPa | 0 mm | - | - | - |
| 1777885480 | 21.11° C | 71% | 1011.7 hPa | 0 mm | - | - | - |
| 1777885180 | 21.67° C | 72% | 1011.7 hPa | 0 mm | - | - | - |
| 1777884880 | 21.67° C | 72% | 1011.6 hPa | 0 mm | - | - | - |
| 1777884580 | 21.11° C | 73% | 1011.7 hPa | 0 mm | - | - | - |
| 1777884280 | 21.11° C | 73% | 1011.9 hPa | 0 mm | - | - | - |
| 1777883980 | 20.56° C | 74% | 1012 hPa | 0 mm | - | - | - |
| 1777883680 | 20.56° C | 76% | 1011.9 hPa | 0 mm | - | - | - |
| 1777883380 | 19.44° C | 76% | 1012 hPa | 0 mm | - | - | - |
| 1777883080 | 19.44° C | 77% | 1012 hPa | 0 mm | - | - | - |
| 1777882780 | 18.89° C | 78% | 1012 hPa | 0 mm | - | - | - |
| 1777882480 | 18.89° C | 77% | 1012.1 hPa | 0 mm | - | - | - |
| 1777882180 | 18.89° C | 78% | 1012.2 hPa | 0 mm | - | - | - |
| 1777881880 | 18.89° C | 78% | 1012.3 hPa | 0 mm | - | - | - |
| 1777881580 | 18.89° C | 81% | 1012.3 hPa | 0 mm | - | - | - |
| 1777881280 | 18.89° C | 81% | 1012.5 hPa | 0 mm | - | - | - |
| 1777880980 | 18.33° C | 81% | 1012.2 hPa | 0 mm | - | - | - |
* Rain latest hour (hover to see other rain measurements)
** Current wind speed in m/s (hover to see current wind gust speed)